This is the latest recevied weather packets stored in our database for station/object DB0RV-13. If no packets are shown the sender has not sent any weather packets the latest 10 day(s).
| Time | Temp. | Humidity | Pressure | Rain* | Wind** | Luminosity | Snow |
|---|---|---|---|---|---|---|---|
| 1777461303 | 16.11° C | 40% | 1017.8 hPa | - | - | - | - |
| 1777461001 | 16.11° C | 40% | 1018 hPa | - | - | - | - |
| 1777460702 | 15.56° C | 40% | 1017.9 hPa | - | - | - | - |
| 1777460401 | 16.11° C | 40% | 1017.8 hPa | - | - | - | - |
| 1777460102 | 16.11° C | 39% | 1017.7 hPa | - | - | - | - |
| 1777459803 | 15.56° C | 41% | 1017.9 hPa | - | - | - | - |
| 1777459503 | 15° C | 43% | 1017.9 hPa | - | - | - | - |
| 1777459202 | 16.11° C | 41% | 1018.1 hPa | - | - | - | - |
| 1777458902 | 15° C | 42% | 1018 hPa | - | - | - | - |
| 1777458602 | 15° C | 42% | 1017.9 hPa | - | - | - | - |
| 1777458301 | 15° C | 42% | 1017.9 hPa | - | - | - | - |
| 1777458002 | 15.56° C | 42% | 1017.8 hPa | - | - | - | - |
| 1777457701 | 15° C | 44% | 1017.8 hPa | - | - | - | - |
| 1777457402 | 15° C | 44% | 1017.9 hPa | - | - | - | - |
| 1777457102 | 15° C | 45% | 1017.9 hPa | - | - | - | - |
| 1777456802 | 14.44° C | 45% | 1017.8 hPa | - | - | - | - |
| 1777456502 | 14.44° C | 46% | 1017.9 hPa | - | - | - | - |
| 1777456202 | 14.44° C | 46% | 1017.9 hPa | - | - | - | - |
| 1777455902 | 13.89° C | 47% | 1018 hPa | - | - | - | - |
| 1777455601 | 13.89° C | 47% | 1018 hPa | - | - | - | - |
| 1777455302 | 13.89° C | 47% | 1018.1 hPa | - | - | - | - |
| 1777455001 | 13.89° C | 50% | 1017.9 hPa | - | - | - | - |
| 1777454702 | 13.33° C | 49% | 1017.9 hPa | - | - | - | - |
| 1777454401 | 13.33° C | 49% | 1017.9 hPa | - | - | - | - |
| 1777454102 | 13.33° C | 49% | 1017.8 hPa | - | - | - | - |
* Rain since midnight (hover to see other rain measurements)
** Current wind speed in m/s (hover to see current wind gust speed)